Weather reports worldwide

Advertisment
Firenze/Peretola, Italy (16170): temperature & dewpoint: 02.08.2020 05:00:00 - 08.08.2020 05:00:00 (CEST)Firenze/Peretola, Italy (16170): wind speed: 02.08.2020 05:00:00 - 08.08.2020 05:00:00 (CEST)Firenze/Peretola, Italy (16170): wind direction: 02.08.2020 05:00:00 - 08.08.2020 05:00:00 (CEST)Firenze/Peretola, Italy (16170): reduced air pressure: 02.08.2020 05:00:00 - 08.08.2020 05:00:00 (CEST)Firenze/Peretola, Italy (16170): visibility: 02.08.2020 05:00:00 - 08.08.2020 05:00:00 (CEST)Firenze/Peretola, Italy (16170): precipitation: 02.08.2020 05:00:00 - 08.08.2020 05:00:00 (CEST)
Date & Time tt [°C] td [°C] ff [km/h] ff [kn] dd ppp [hPa] vv [km] rr [mm]
08.08.2020 05:00:00 20,2 15,4 2 1 - 1017,9 10 0,0
08.08.2020 04:00:00 22,0 15,0 2 1 - - 10 -
08.08.2020 03:00:00 22,0 15,0 4 2 - - 10 -
08.08.2020 02:00:00 21,7 14,9 4 2 - 1018,2 10 -
08.08.2020 01:00:00 25,0 15,0 4 2 - - 10 -
08.08.2020 00:00:00 25,0 15,0 4 2 - - 10 -
07.08.2020 23:00:00 26,4 14,6 4 2 - 1017,9 10 0,0
07.08.2020 22:00:00 28,0 15,0 11 6 S - 10 -
07.08.2020 21:00:00 29,0 15,0 5 3 - - 10 -
07.08.2020 20:00:00 30,0 15,3 18 10 NNE 1016,5 10 -
07.08.2020 19:00:00 31,0 15,0 22 12 N - 10 -
07.08.2020 18:00:00 33,0 15,0 21 11 N - 10 -
07.08.2020 17:00:00 32,8 15,7 22 12 N 1016,4 10 0,0
07.08.2020 16:00:00 34,0 15,0 21 11 NE - 10 -
07.08.2020 15:00:00 33,0 15,0 21 11 NNE - 10 -
07.08.2020 14:00:00 32,6 15,0 18 10 N 1017,0 10 -
07.08.2020 13:00:00 32,0 15,0 21 11 NNE - 10 -
07.08.2020 12:00:00 31,0 15,0 22 12 N - 10 -
07.08.2020 11:00:00 30,3 15,1 13 7 NNE 1017,6 10 0,0
07.08.2020 10:00:00 29,0 15,0 13 7 NNE - 10 -
07.08.2020 09:00:00 27,0 16,0 11 6 NE - 10 -
07.08.2020 08:00:00 25,0 17,0 13 7 E 1017,7 10 -
07.08.2020 07:00:00 22,0 16,0 4 2 - - 10 -
07.08.2020 06:00:00 21,0 16,0 5 3 ENE - 10 -
07.08.2020 05:00:00 21,2 15,3 4 2 - 1017,1 10 0,0
07.08.2020 04:00:00 22,0 16,0 4 2 - - 10 -
07.08.2020 03:00:00 23,0 16,0 9 5 E - 10 -
07.08.2020 02:00:00 23,1 15,5 4 2 - 1017,5 10 -
07.08.2020 01:00:00 23,0 15,0 4 2 - - 10 -
07.08.2020 00:00:00 23,0 15,0 8 4 NE - 10 -
06.08.2020 23:00:00 24,1 14,9 9 5 N 1017,4 10 0,0
06.08.2020 22:00:00 25,0 15,0 2 1 - - 10 -
06.08.2020 21:00:00 26,0 15,0 11 6 NE - 10 -
06.08.2020 20:00:00 27,5 14,1 9 5 NNE 1015,6 10 -
06.08.2020 19:00:00 29,0 14,0 15 8 NE - 10 -
06.08.2020 18:00:00 30,0 15,0 15 8 - - 10 -
06.08.2020 17:00:00 29,7 15,0 11 6 - 1014,7 10 0,0
06.08.2020 16:00:00 30,0 15,0 24 13 NE - 10 -
06.08.2020 15:00:00 29,0 14,0 24 13 NE - 10 -
06.08.2020 14:00:00 31,1 14,9 28 15 NE 1015,2 10 -
06.08.2020 13:00:00 29,0 15,0 16 9 NE - 10 -
06.08.2020 12:00:00 28,0 14,0 13 7 N - 10 -
06.08.2020 11:00:00 26,2 14,3 16 9 N 1015,7 10 0,0
06.08.2020 10:00:00 27,0 15,0 16 9 N - 10 -
06.08.2020 09:00:00 26,0 14,0 16 9 NNE - 10 -
06.08.2020 08:00:00 24,8 14,6 15 8 NNE 1014,6 10 -
06.08.2020 07:00:00 23,0 15,0 15 8 NNE - 10 -
06.08.2020 06:00:00 23,0 14,0 11 6 N - 10 -
06.08.2020 05:00:00 21,7 13,6 13 7 NNW 1014,3 10 0,0
06.08.2020 04:00:00 21,0 14,0 5 3 SSE - 10 -
06.08.2020 03:00:00 21,0 14,0 9 5 SSW - 10 -
06.08.2020 02:00:00 21,0 13,5 8 4 SE 1014,5 10 -
06.08.2020 01:00:00 22,0 13,0 5 3 - - 10 -
06.08.2020 00:00:00 22,0 14,0 13 7 ESE - 10 -
05.08.2020 23:00:00 21,1 13,5 8 4 WNW 1014,0 10 0,0
05.08.2020 22:00:00 23,0 13,0 11 6 N - 10 -
05.08.2020 21:00:00 24,0 13,0 13 7 N - 10 -
05.08.2020 20:00:00 24,6 12,3 13 7 NNE 1012,8 10 -
05.08.2020 19:00:00 25,0 12,0 22 12 NNE - 10 -
05.08.2020 18:00:00 26,0 12,0 22 12 NE - 10 -
05.08.2020 17:00:00 27,3 13,1 13 7 N 1012,0 10 0,0
05.08.2020 16:00:00 28,0 13,0 16 9 NNE - 10 -
05.08.2020 15:00:00 29,0 13,0 24 13 NNE - 10 -
05.08.2020 14:00:00 27,6 13,6 22 12 NE 1011,9 10 -
05.08.2020 13:00:00 27,0 13,0 22 12 NE - 10 -
05.08.2020 12:00:00 27,0 14,0 18 10 NNE - 10 -
05.08.2020 11:00:00 25,7 13,5 16 9 NE 1011,6 10 0,0
05.08.2020 10:00:00 23,0 13,0 16 9 N - 10 -
05.08.2020 09:00:00 23,0 14,0 21 11 NNE - 10 -
05.08.2020 08:00:00 21,5 15,4 8 4 - 1011,0 10 -
05.08.2020 07:00:00 20,0 14,0 8 4 S - 10 -
05.08.2020 06:00:00 20,0 13,0 4 2 - - 10 -
05.08.2020 05:00:00 19,6 13,2 2 1 - 1009,8 10 0,0
05.08.2020 04:00:00 20,0 13,0 11 6 NW - 10 -
05.08.2020 03:00:00 21,0 13,0 5 3 - - 10 -
05.08.2020 02:00:00 21,5 12,5 9 5 SSW 1008,9 10 -
05.08.2020 01:00:00 21,0 13,0 9 5 E - 10 -
05.08.2020 00:00:00 21,0 13,0 5 3 NNW - 10 -
04.08.2020 23:00:00 21,0 12,5 4 2 - 1008,5 10 0,0
04.08.2020 22:00:00 21,0 12,0 13 7 N - 10 -
04.08.2020 21:00:00 22,0 14,0 4 2 - - 10 -
04.08.2020 20:00:00 21,4 14,5 11 6 N 1006,8 10 -
04.08.2020 19:00:00 21,0 16,0 22 12 N - 10 -
04.08.2020 18:00:00 26,0 12,0 16 9 NNW - 10 -
04.08.2020 17:00:00 26,1 12,2 13 7 NNW 1004,9 10 0,0
04.08.2020 16:00:00 27,0 12,0 11 6 N - 10 -
04.08.2020 15:00:00 27,0 13,0 21 11 NNW - 10 -
04.08.2020 14:00:00 27,2 12,3 9 5 W 1005,0 10 -
04.08.2020 13:00:00 26,0 11,0 18 10 NNE - 10 -
04.08.2020 12:00:00 25,0 12,0 13 7 N - 10 -
04.08.2020 11:00:00 24,5 13,8 13 7 N 1003,0 10 0,0
04.08.2020 10:00:00 26,0 15,0 4 2 - - 10 -
04.08.2020 09:00:00 24,0 14,0 8 4 E - 10 -
04.08.2020 08:00:00 22,7 14,8 11 6 ENE 1002,6 10 -
04.08.2020 07:00:00 21,0 15,0 5 3 NE - 10 -
04.08.2020 06:00:00 23,0 15,0 11 6 SSE - 10 -
04.08.2020 05:00:00 21,8 16,1 5 3 E 1003,1 10 0,0
04.08.2020 04:00:00 22,0 16,0 9 5 SSE - 10 -
04.08.2020 03:00:00 22,0 17,0 5 3 SSE - 10 -
04.08.2020 02:00:00 22,6 16,8 11 6 SSE 1003,4 10 -
04.08.2020 01:00:00 23,0 18,0 11 6 S - 10 -
04.08.2020 00:00:00 23,0 18,0 4 2 - - 10 -
03.08.2020 23:00:00 23,9 17,9 11 6 SSW 1004,1 10 0,0
03.08.2020 22:00:00 25,0 18,0 13 7 SSW - 10 -
03.08.2020 21:00:00 25,0 18,0 16 9 SW - 10 -
03.08.2020 20:00:00 26,6 16,8 22 12 WSW 1003,4 10 -
03.08.2020 19:00:00 29,0 16,0 21 11 WSW - 10 -
03.08.2020 18:00:00 28,0 15,0 24 13 WSW - 10 -
03.08.2020 17:00:00 28,3 16,7 21 11 SW 1004,0 10 0,0
03.08.2020 16:00:00 28,0 15,0 21 11 WSW - 10 -
03.08.2020 15:00:00 32,0 14,0 28 15 SSW - 10 -
03.08.2020 14:00:00 30,9 17,6 11 6 S 1004,4 10 -
03.08.2020 13:00:00 30,0 19,0 8 4 SSW - 10 -
03.08.2020 12:00:00 30,0 20,0 9 5 SSW - 10 -
03.08.2020 11:00:00 28,9 20,5 8 4 SSW 1006,7 10 0,0
03.08.2020 10:00:00 29,0 20,0 8 4 WSW - 10 -
03.08.2020 09:00:00 28,0 20,0 4 2 - - 10 -
03.08.2020 08:00:00 26,2 20,6 11 6 ESE 1006,9 10 -
03.08.2020 07:00:00 24,0 20,0 8 4 ESE - 10 -
03.08.2020 06:00:00 25,0 20,0 5 3 SE - 10 -
03.08.2020 05:00:00 24,4 20,3 4 2 - 1007,9 10 0,0
03.08.2020 04:00:00 24,0 20,0 8 4 NE - 10 -
03.08.2020 03:00:00 24,0 20,0 9 5 E - 10 -
03.08.2020 02:00:00 24,5 20,2 2 1 - 1008,5 10 -
03.08.2020 01:00:00 25,0 20,0 2 1 - - 10 -
03.08.2020 00:00:00 26,0 20,0 5 3 ESE - 10 -
02.08.2020 23:00:00 27,4 20,1 8 4 SSW 1008,4 10 0,0
02.08.2020 22:00:00 29,0 20,0 16 9 SW - 10 -
02.08.2020 21:00:00 30,0 21,0 18 10 SW - 10 -
02.08.2020 20:00:00 31,6 20,8 16 9 WSW 1007,4 10 -
02.08.2020 19:00:00 35,0 20,0 16 9 SW - 10 -
02.08.2020 18:00:00 36,0 19,0 13 7 SW - 10 -
02.08.2020 17:00:00 36,3 18,0 11 6 SSW 1007,5 10 0,0
02.08.2020 16:00:00 36,0 17,0 15 8 SW - 10 -
02.08.2020 15:00:00 35,0 18,0 11 6 W - 10 -
02.08.2020 14:00:00 35,6 17,5 9 5 - 1009,4 10 -
02.08.2020 13:00:00 34,0 19,0 8 4 - - 10 -
02.08.2020 12:00:00 33,0 18,0 5 3 - - 10 -
02.08.2020 11:00:00 31,8 18,1 4 2 - 1010,5 10 0,0
02.08.2020 10:00:00 29,0 19,0 4 2 - - 10 -
02.08.2020 09:00:00 27,0 19,0 4 2 - - 10 -
02.08.2020 08:00:00 25,1 20,1 8 4 S 1011,0 10 -
02.08.2020 07:00:00 22,0 19,0 5 3 - - 10 -
02.08.2020 06:00:00 22,0 18,0 4 2 - - 10 -
02.08.2020 05:00:00 22,5 18,2 9 5 ESE 1010,5 10 0,0

tt = temperature
td = dewpoint
ff = wind speed
dd = wind direction
ppp = reduced air pressure
vv = visibility
rr = precipitation

Next stations